EN

Hourly Weather Godzietowy

Today, 16 May, Sunday

Time Temperature Precipitation Wind Pressure Humidity
00:00 +10°C° 0.2 mm 2 mps 739 mmHg 93%
01:00 +10°C° 0 mm 2 mps 739 mmHg 94%
02:00 +10°C° 0.5 mm 2 mps 738 mmHg 94%
03:00 +10°C° 0.5 mm 2 mps 738 mmHg 95%
04:00 +10°C° 0.5 mm 2 mps 738 mmHg 95%
05:00 +11°C° 0.2 mm 3 mps 738 mmHg 93%
06:00 +12°C° 0.2 mm 3 mps 738 mmHg 90%
07:00 +12°C° 0.2 mm 3 mps 738 mmHg 88%
08:00 +13°C° 0.2 mm 3 mps 738 mmHg 82%
09:00 +14°C° 0.2 mm 3 mps 738 mmHg 77%
10:00 +15°C° 0.2 mm 4 mps 738 mmHg 71%
11:00 +15°C° 0.4 mm 4 mps 739 mmHg 70%
12:00 +15°C° 0.4 mm 4 mps 739 mmHg 69%
13:00 +15°C° 0.4 mm 4 mps 739 mmHg 68%
14:00 +15°C° 0.1 mm 4 mps 739 mmHg 68%
15:00 +17°C° 0.1 mm 3 mps 739 mmHg 67%
16:00 +17°C° 0.1 mm 3 mps 738 mmHg 66%
17:00 +16°C° 0 mm 3 mps 738 mmHg 70%
18:00 +15°C° 0 mm 2 mps 738 mmHg 74%
19:00 +14°C° 0 mm 2 mps 738 mmHg 78%
20:00 +13°C° 0 mm 2 mps 738 mmHg 79%
21:00 +12°C° 0 mm 2 mps 739 mmHg 81%
22:00 +10°C° 0 mm 2 mps 739 mmHg 83%
23:00 +9°C° 0 mm 2 mps 739 mmHg 84%

Tomorrow, 17 May, Monday

Time Temperature Precipitation Wind Pressure Humidity
00:00 +9°C° 0 mm 2 mps 739 mmHg 84%
01:00 +9°C° 0 mm 2 mps 739 mmHg 85%
02:00 +9°C° 0 mm 2 mps 739 mmHg 86%
03:00 +8°C° 0 mm 2 mps 738 mmHg 87%
04:00 +8°C° 0 mm 2 mps 738 mmHg 88%
05:00 +10°C° 0 mm 2 mps 738 mmHg 85%
06:00 +12°C° 0 mm 2 mps 738 mmHg 82%
07:00 +12°C° 0 mm 3 mps 738 mmHg 79%
08:00 +12°C° 0.5 mm 3 mps 739 mmHg 83%
09:00 +13°C° 0.5 mm 2 mps 739 mmHg 87%
10:00 +12°C° 0.5 mm 2 mps 739 mmHg 91%
11:00 +12°C° 1.1 mm 2 mps 739 mmHg 91%
12:00 +12°C° 1.1 mm 2 mps 739 mmHg 91%
13:00 +12°C° 1.1 mm 1 mps 739 mmHg 92%
14:00 +12°C° 1 mm 2 mps 739 mmHg 93%
15:00 +12°C° 1 mm 2 mps 739 mmHg 93%
16:00 +10°C° 1 mm 2 mps 739 mmHg 94%
17:00 +10°C° 0.7 mm 2 mps 739 mmHg 95%
18:00 +10°C° 0.7 mm 2 mps 739 mmHg 95%
19:00 +10°C° 0.7 mm 2 mps 739 mmHg 96%
20:00 +10°C° 0.4 mm 2 mps 739 mmHg 96%
21:00 +10°C° 0.4 mm 2 mps 739 mmHg 96%
22:00 +10°C° 0.4 mm 2 mps 739 mmHg 96%
23:00 +10°C° 0.3 mm 3 mps 739 mmHg 95%

Day after tomorrow, 18 May, Tuesday

Time Temperature Precipitation Wind Pressure Humidity
00:00 +10°C° 0.3 mm 4 mps 739 mmHg 95%
01:00 +8°C° 0.3 mm 5 mps 740 mmHg 95%
02:00 +8°C° 0 mm 5 mps 740 mmHg 95%
03:00 +8°C° 0 mm 5 mps 740 mmHg 95%
04:00 +7°C° 0 mm 6 mps 740 mmHg 95%
05:00 +8°C° 0 mm 6 mps 740 mmHg 92%
06:00 +8°C° 0 mm 6 mps 741 mmHg 90%
07:00 +9°C° 0 mm 6 mps 741 mmHg 88%
08:00 +9°C° 0 mm 6 mps 741 mmHg 86%
09:00 +10°C° 0 mm 6 mps 741 mmHg 83%
10:00 +10°C° 0 mm 6 mps 741 mmHg 81%
11:00 +11°C° 0.1 mm 6 mps 741 mmHg 77%
12:00 +12°C° 0.1 mm 7 mps 741 mmHg 73%
13:00 +14°C° 0.1 mm 7 mps 741 mmHg 70%
14:00 +14°C° 0.2 mm 7 mps 741 mmHg 69%
15:00 +14°C° 0.2 mm 6 mps 742 mmHg 69%
16:00 +15°C° 0.2 mm 6 mps 742 mmHg 69%
17:00 +14°C° 0.2 mm 5 mps 742 mmHg 74%
18:00 +12°C° 0.2 mm 4 mps 742 mmHg 80%
19:00 +11°C° 0.2 mm 3 mps 742 mmHg 85%
20:00 +10°C° 0 mm 3 mps 743 mmHg 88%
21:00 +9°C° 0 mm 3 mps 743 mmHg 91%
22:00 +8°C° 0 mm 3 mps 743 mmHg 94%
23:00 +8°C° 0 mm 3 mps 743 mmHg 95%

19 May, Wednesday

Time Temperature Precipitation Wind Pressure Humidity
00:00 +7°C° 0 mm 4 mps 744 mmHg 95%
01:00 +7°C° 0 mm 4 mps 744 mmHg 96%
02:00 +6°C° 0 mm 4 mps 744 mmHg 96%
03:00 +6°C° 0 mm 4 mps 744 mmHg 97%
04:00 +6°C° 0 mm 4 mps 744 mmHg 97%
05:00 +7°C° 0 mm 4 mps 744 mmHg 93%
06:00 +8°C° 0 mm 5 mps 745 mmHg 88%
07:00 +9°C° 0 mm 5 mps 745 mmHg 84%
08:00 +10°C° 0 mm 5 mps 745 mmHg 79%
09:00 +12°C° 0 mm 5 mps 745 mmHg 74%
10:00 +13°C° 0 mm 5 mps 745 mmHg 69%
11:00 +13°C° 0.2 mm 5 mps 745 mmHg 71%
12:00 +13°C° 0.2 mm 5 mps 745 mmHg 72%
13:00 +13°C° 0.2 mm 5 mps 745 mmHg 74%
14:00 +12°C° 0.4 mm 5 mps 745 mmHg 76%
15:00 +12°C° 0.4 mm 5 mps 745 mmHg 78%
16:00 +12°C° 0.4 mm 5 mps 745 mmHg 80%
17:00 +10°C° 0.3 mm 5 mps 745 mmHg 84%
18:00 +11°C° 0.3 mm 4 mps 745 mmHg 87%
19:00 +10°C° 0.3 mm 4 mps 745 mmHg 90%
20:00 +9°C° 0 mm 3 mps 745 mmHg 91%
21:00 +8°C° 0 mm 3 mps 745 mmHg 93%
22:00 +8°C° 0 mm 3 mps 746 mmHg 94%
23:00 +7°C° 0 mm 3 mps 746 mmHg 94%

20 May, Thursday

Time Temperature Precipitation Wind Pressure Humidity
00:00 +7°C° 0 mm 3 mps 746 mmHg 94%
01:00 +7°C° 0 mm 3 mps 746 mmHg 94%
02:00 +5°C° 0 mm 3 mps 746 mmHg 94%
03:00 +5°C° 0 mm 3 mps 746 mmHg 94%
04:00 +5°C° 0 mm 3 mps 746 mmHg 94%
05:00 +7°C° 0 mm 3 mps 746 mmHg 91%
06:00 +8°C° 0 mm 3 mps 746 mmHg 88%
07:00 +8°C° 0 mm 4 mps 747 mmHg 85%
08:00 +11°C° 0.2 mm 4 mps 747 mmHg 80%
09:00 +12°C° 0.2 mm 5 mps 747 mmHg 75%
10:00 +13°C° 0.2 mm 5 mps 747 mmHg 69%
11:00 +14°C° 0.3 mm 5 mps 747 mmHg 67%
12:00 +14°C° 0.3 mm 5 mps 747 mmHg 66%
13:00 +14°C° 0.3 mm 5 mps 747 mmHg 64%
14:00 +14°C° 0.1 mm 5 mps 747 mmHg 62%
15:00 +14°C° 0.1 mm 5 mps 747 mmHg 60%
16:00 +14°C° 0.1 mm 5 mps 747 mmHg 59%
17:00 +13°C° 0 mm 4 mps 747 mmHg 64%
18:00 +12°C° 0 mm 3 mps 747 mmHg 69%
19:00 +11°C° 0 mm 3 mps 747 mmHg 74%
20:00 +10°C° 0 mm 3 mps 747 mmHg 76%
21:00 +9°C° 0 mm 3 mps 747 mmHg 78%
22:00 +8°C° 0 mm 3 mps 747 mmHg 81%
23:00 +7°C° 0 mm 3 mps 747 mmHg 83%

21 May, Friday

Time Temperature Precipitation Wind Pressure Humidity
00:00 +7°C° 0 mm 3 mps 747 mmHg 86%
01:00 +7°C° 0 mm 3 mps 747 mmHg 89%
02:00 +5°C° 0 mm 3 mps 747 mmHg 91%
03:00 +5°C° 0 mm 3 mps 747 mmHg 93%
04:00 +5°C° 0 mm 3 mps 747 mmHg 95%
05:00 +7°C° 0 mm 3 mps 747 mmHg 89%
06:00 +9°C° 0 mm 3 mps 747 mmHg 84%
07:00 +11°C° 0 mm 4 mps 747 mmHg 79%
08:00 +12°C° 0 mm 4 mps 747 mmHg 72%
09:00 +13°C° 0 mm 4 mps 747 mmHg 65%
10:00 +15°C° 0 mm 4 mps 746 mmHg 59%
11:00 +15°C° 0.1 mm 4 mps 746 mmHg 58%
12:00 +16°C° 0.1 mm 5 mps 745 mmHg 58%
13:00 +16°C° 0.1 mm 5 mps 745 mmHg 57%
14:00 +16°C° 0.1 mm 5 mps 744 mmHg 56%
15:00 +17°C° 0.1 mm 5 mps 744 mmHg 55%
16:00 +17°C° 0.1 mm 5 mps 743 mmHg 54%
17:00 +17°C° 0 mm 4 mps 743 mmHg 61%
18:00 +14°C° 0 mm 4 mps 743 mmHg 67%
19:00 +13°C° 0 mm 3 mps 742 mmHg 73%
20:00 +13°C° 0 mm 4 mps 742 mmHg 72%
21:00 +13°C° 0 mm 4 mps 742 mmHg 71%
22:00 +13°C° 0 mm 5 mps 742 mmHg 70%
23:00 +13°C° 0 mm 5 mps 741 mmHg 70%
Show more